Regional Weather Roundup
Issued by NWS

Home | Current Version | Previous Version | Text Only | Print | Product List | Glossary Off
Versions: 1 2 3 4 5 6 7 8 9 10 11 12 13 14 15 16 17 18 19 20 21 22 23 24 25 26 27 28 29 30 31 32 33 34 35 36 37 38 39 40 41 42 43 44 45 46 47 48 49

000
ASUS45 KBOU 280507
RWRCO

WEATHER ROUNDUP FOR COLORADO
NATIONAL WEATHER SERVICE DENVER/BOULDER CO
1000 PM MST FRI FEB 27 2015

NOTE: "FAIR" INDICATES FEW OR NO CLOUDS BELOW 12000 FEET WITH NO
SIGNIFICANT WEATHER AND/OR OBSTRUCTIONS TO VISIBILITY.

COZ001>005-013-030-031-280600-
...NORTHWEST COLORADO...

CITY           SKY/WX    TMP DP  RH WIND       PRES   REMARKS
CRAIG            N/A     19  12  74 NE3       29.78R
HAYDEN         PTCLDY    18   7  62 E13       29.77R WCI   4
MEEKER         CLEAR     13   8  81 CALM      29.77R
MOUNT WERNER   NOT AVBL
STEAMBOAT SPGS PTCLDY    13   6  72 CALM      29.78R
WALDEN         PTCLDY     1  -6  71 SE8       29.76R WCI -12
$$

COZ006>008-011-280600-
...WEST CENTRAL VALLEYS...

CITY           SKY/WX    TMP DP  RH WIND       PRES   REMARKS
GRAND JUNCTION CLEAR     30  26  85 SE13      29.77S WCI  20
MONTROSE       PTCLDY    20  16  84 SE8       29.80R WCI  10
EAGLE          LGT SNOW  27  21  80 CALM      29.82R FOG
RIFLE          CLEAR     27  19  72 SE6       29.78R WCI  20
DELTA          PTCLDY    31  27  84 NE6       29.80S WCI  25
NUCLA          PTCLDY    30  23  74 E5        29.81R WCI  25
$$

COZ017>023-064>068-280600-
...SOUTHWEST COLORADO...

CITY           SKY/WX    TMP DP  RH WIND       PRES   REMARKS
DURANGO        CLOUDY    26  24  92 E3        29.80R
CORTEZ         LGT SNOW  31  29  92 CALM      29.78R FOG
PAGOSA SPRINGS LGT SNOW  25  25  99 SE3       29.80R
TELLURIDE      CLOUDY    22  21  96 CALM      29.76S
WOLF CREEK PAS LGT SNOW   9   9 100 SW12      29.76R VSB 3/4 WCI  -6
$$

COZ009-010-012-014-032>034-037-058>063-280600-
...CENTRAL COLORADO...

CITY           SKY/WX    TMP DP  RH WIND       PRES   REMARKS
ASPEN          MOCLDY    12   7  80 S7        29.76R WCI   1
BUENA VISTA    MOCLDY     3   0  85 CALM      29.80R
COPPER MTN     PTCLDY    10   3  72 SW6       29.69R WCI   1
BERTHOUD PASS  CLOUDY     3  -4  72 W5        29.68S WCI  -6
COTTONWOOD PAS PTCLDY    18  12  79 CALM      29.73S
GUNNISON       MOCLDY    16   3  57 N5        29.79S WCI   9
KREMMLING      CLOUDY    19  10  68 SE5       29.79S WCI  13
LEADVILLE      FLURRIES   6   2  83 NE3       29.72R
SALIDA         MOCLDY    11   7  83 SE7       29.90R WCI   0
SUNLIGHT       MOCLDY    12  10  92 CALM        N/A
WILKERSON PASS CLOUDY    10   7  85 SW7       29.73R WCI   0
$$

COZ069>075-280600-
...SAN LUIS VALLEY/SANGRE DE CRISTO MOUNTAINS...

CITY           SKY/WX    TMP DP  RH WIND       PRES   REMARKS
ALAMOSA        CLOUDY    18  13  80 VRB5      29.80R WCI  11
LA VETA PASS   LGT SNOW  14  12  92 MISG      29.74F VSB 1
SAGUACHE       CLOUDY    21  19  93 SE6       29.81R WCI  14
$$

COZ035-036-038>040-280600-
...NORTHERN COLORADO FRONT RANGE...

CITY           SKY/WX    TMP DP  RH WIND       PRES   REMARKS
DENVER INTL AP MOCLDY     8   2  76 S6        29.91F WCI  -2
DMNS CITY PARK   N/A     10   6  87 CALM      29.92S
AURORA         PTCLDY     9   5  83 SE3       29.90F
FRONT RANGE AP NOT AVBL
ERIE MUNI ARPT PTCLDY     5   2  87 CALM      29.94S
BOULDER MUN AP PTCLDY    10   7  85 CALM      29.92F
CENTENNIAL     FLURRIES  10   4  76 SE6       29.89F WCI   0
BROOMFIELD     MOCLDY     9   1  72 CALM      29.91S
FORT COLLINS   PTCLDY    10   5  79 CALM      29.95S
LONGMONT       PTCLDY     7   3  82 W5        29.96S WCI  -1
$$

COZ041-046-047-076>085-087-088-280600-
...PIKES PEAK/PALMER DIVIDE AND SOUTHERN FOOTHILLS...

CITY           SKY/WX    TMP DP  RH WIND       PRES   REMARKS
COLO. SPRINGS  LGT SNOW   6   3  87 SE9       29.93R FOG     WCI  -8
A. F. ACADEMY  CLOUDY     7   3  85 S8        29.88R WCI  -6
ELLICOTT       NOT AVBL
FALCON         FLURRIES   3   0  86 S5        29.88R WCI  -6
FORT CARSON    LGT SNOW   7   5  92 SE5       29.94R FOG     WCI  -2
LIMON          CLOUDY     5   2  87 S16       29.98F FOG     WCI -14
MONUMENT HILL  PTCLDY     1  -4  78 S8        29.82S WCI -12
TRINIDAD       CLOUDY    10   5  80 NW7       29.93R WCI  -1
$$

COZ042>045-048>051-090-091-280600-
...NORTHEAST COLORADO...

CITY           SKY/WX    TMP DP  RH WIND       PRES   REMARKS
GREELEY ARPT   PTCLDY    10   1  67 E3        29.95F
AKRON          PTCLDY     8   4  83 S15       30.01F WCI  -9
BURLINGTON     CLOUDY    10   5  80 S16       30.10F WCI  -7
WRAY           CLOUDY    13   8  81 S12       30.14S WCI  -1
STERLING       PTCLDY    10   7  85 S8        30.05F WCI  -1
HOLYOKE        NOT AVBL
FORT MORGAN    PTCLDY    10   4  77 S12       30.01S WCI  -5
$$

COZ086-089-092>099-280600-
...SOUTHEAST COLORADO...

CITY           SKY/WX    TMP DP  RH WIND       PRES   REMARKS
PUEBLO         FLURRIES  12   8  84 E9        30.02R WCI   0
LA JUNTA       PTCLDY    11   6  81 E10       30.05R WCI  -3
LAMAR          CLOUDY    12   8  84 SE15      30.11S WCI  -4
SPRINGFIELD      N/A     11   8  88 S18       30.07S WCI  -7
$$



USA.gov is the U.S. government's official web portal to all federal, state and local government web resources and services.